Tallahassee, FL

12:36 PM EDT on May 27, 2017 (GMT -0400)
Tallahassee Regional

Weather History for KTLH - March, 2013

Change the Weather History Date:

Saturday, March 2, 2013

  Actual Average Record
Temperature  
Mean Temperature 44 °F 58 °F  
Max Temperature 54 °F 71 °F 87 °F (1918)
Min Temperature 34 °F 45 °F 20 °F (1986)
Degree Days  
Heating Degree Days 21    
Month to date heating degree days 42  
Since 1 July heating degree days 1020  
Cooling Degree Days 0    
Month to date cooling degree days 0  
Year to date cooling degree days 50  
Moisture  
Dew Point 25 °F    
Average Humidity 60    
Maximum Humidity 89    
Minimum Humidity 30    
Precipitation  
Precipitation 0.00 in 0.22 in 5.38 in (1991)
Month to date precipitation 0.00 0.43  
Year to date precipitation 13.21 9.62  
Sea Level Pressure  
Sea Level Pressure 30.06 in    
Wind  
Wind Speed 10 mph (NW)    
Max Wind Speed 21 mph    
Max Gust Speed 30 mph    
Visibility 10 miles    
Events      
T = Trace of Precipitation, MM = Missing Value Source: NWS Daily Summary

Daily Weather History Graph

Daily Weather History Graph

Search for Another Location

Airport or City:

Trip Planner

Search our weather history database for the weather conditions in past years. The results will help you decide how hot, cold, wet, or windy it might be!

Date:

Astronomy

Mar. 02, 2013 Rise Set
Actual Time 7:02 AM EST 6:37 PM EST
Civil Twilight 6:38 AM EST 7:01 PM EST
Nautical Twilight 6:10 AM EST 7:29 PM EST
Astronomical Twilight 5:42 AM EST 7:56 PM EST
Moon 11:49 PM EST (3/2) 9:54 AM EST (3/2)
Length of Visible Light 12h 23m
Length of Day
11h 34m
Waning Gibbous, 74% of the Moon is Illuminated
Mar 2
Waning Gibbous
Mar 4
Last Quarter
Mar 11
New
Mar 19
First Quarter
Mar 27
Full

Hourly Weather History & Observations

Time (EST) Temp. Windchill Dew Point Humidity Pressure Visibility Wind Dir Wind Speed Gust Speed Precip Events Conditions
12:53 AM 34.0 °F - 30.0 °F 85% 30.06 in 7.0 mi Calm Calm - N/A   Partly Cloudy
1:53 AM 33.8 °F - 30.2 °F 87% 30.06 in 10.0 mi Calm Calm - N/A   Clear
2:53 AM 39.9 °F 34.5 °F 30.0 °F 68% 30.06 in 10.0 mi NW 8.1 mph - N/A   Clear
3:53 AM 39.0 °F 33.4 °F 28.9 °F 67% 30.06 in 10.0 mi NW 8.1 mph - N/A   Clear
4:53 AM 39.0 °F 35.7 °F 28.0 °F 65% 30.06 in 10.0 mi WNW 4.6 mph - N/A   Overcast
5:53 AM 35.1 °F 30.1 °F 27.0 °F 72% 30.06 in 10.0 mi West 5.8 mph - N/A   Clear
6:53 AM 35.1 °F 29.3 °F 27.0 °F 72% 30.08 in 10.0 mi WNW 6.9 mph - N/A   Clear
7:53 AM 37.0 °F 31.0 °F 27.0 °F 67% 30.09 in 10.0 mi West 8.1 mph - N/A   Clear
8:53 AM 42.1 °F 35.2 °F 26.1 °F 53% 30.10 in 10.0 mi WNW 12.7 mph - N/A   Clear
9:53 AM 44.1 °F 36.2 °F 25.0 °F 47% 30.10 in 10.0 mi NW 18.4 mph 23.0 mph N/A   Scattered Clouds
10:53 AM 46.9 °F - 21.9 °F 37% 30.09 in 10.0 mi WNW 16.1 mph 21.9 mph N/A   Scattered Clouds
11:53 AM 50.0 °F - 23.0 °F 35% 30.09 in 10.0 mi West 16.1 mph 26.5 mph N/A   Scattered Clouds
12:53 PM 48.9 °F - 21.9 °F 35% 30.05 in 10.0 mi NNW 17.3 mph 24.2 mph N/A   Scattered Clouds
1:53 PM 51.1 °F - 23.0 °F 33% 30.03 in 10.0 mi NNW 16.1 mph 20.7 mph N/A   Scattered Clouds
2:53 PM 51.1 °F - 21.9 °F 32% 30.01 in 10.0 mi WNW 13.8 mph 24.2 mph N/A   Scattered Clouds
3:53 PM 52.0 °F - 21.9 °F 31% 30.01 in 10.0 mi NNW 18.4 mph 23.0 mph N/A   Scattered Clouds
4:53 PM 51.1 °F - 21.9 °F 32% 30.01 in 10.0 mi NW 15.0 mph 23.0 mph N/A   Scattered Clouds
5:53 PM 48.0 °F - 23.0 °F 37% 30.03 in 10.0 mi NNW 16.1 mph - N/A   Scattered Clouds
6:53 PM 45.0 °F 40.1 °F 23.0 °F 42% 30.05 in 10.0 mi NNW 9.2 mph - N/A   Partly Cloudy
7:53 PM 43.0 °F 38.2 °F 24.1 °F 47% 30.06 in 10.0 mi NNW 8.1 mph - N/A   Partly Cloudy
8:53 PM 43.0 °F 37.7 °F 24.1 °F 47% 30.09 in 10.0 mi NNW 9.2 mph - N/A   Partly Cloudy
9:53 PM 42.1 °F 37.7 °F 25.0 °F 51% 30.10 in 10.0 mi NW 6.9 mph - N/A   Scattered Clouds
10:53 PM 42.1 °F 37.7 °F 25.0 °F 51% 30.10 in 10.0 mi NW 6.9 mph - N/A   Mostly Cloudy
11:53 PM 42.1 °F 38.4 °F 26.1 °F 53% 30.09 in 10.0 mi NW 5.8 mph - N/A   Overcast